When you browse on this site, cookies collect data to enhance your experience and personalize the content and advertising you see.
Visit our Privacy Policy to learn more. By continuing to use the site, you agree to this use of cookies and data.
  • Em Portugal
  • Lista de países
  • Para 7 dias
  • Temperatura da água
  • Mapas de satélite
  • Mapa do tempo
  • Widgets de tempo
  • user-avatar
    Iniciar Sessão

    Previsão horária em Bakhtaran

    Hoje, 26 Março, Terça-feira

    Tempo Temperatura Precipitação Vento Pressão Humidade
    00:00 +7°C° 0.1 mm 1 m/s 629 mmHg 81%
    01:00 +7°C° 0 mm 1 m/s 629 mmHg 82%
    02:00 +6°C° 0 mm 1 m/s 629 mmHg 83%
    03:00 +5°C° 0 mm 2 m/s 629 mmHg 86%
    04:00 +5°C° 0 mm 2 m/s 629 mmHg 86%
    05:00 +6°C° 0 mm 1 m/s 629 mmHg 87%
    06:00 +5°C° 0 mm 1 m/s 629 mmHg 87%
    07:00 +7°C° 0 mm 1 m/s 629 mmHg 80%
    08:00 +9°C° 0 mm 1 m/s 630 mmHg 72%
    09:00 +10°C° 0 mm 1 m/s 630 mmHg 64%
    10:00 +9°C° 1.2 mm 2 m/s 630 mmHg 67%
    11:00 +9°C° 1.2 mm 2 m/s 630 mmHg 69%
    12:00 +8°C° 1.2 mm 3 m/s 630 mmHg 72%
    13:00 +8°C° 2 mm 2 m/s 630 mmHg 73%
    14:00 +8°C° 2 mm 2 m/s 631 mmHg 73%
    15:00 +8°C° 2 mm 2 m/s 631 mmHg 74%
    16:00 +8°C° 0.6 mm 2 m/s 631 mmHg 72%
    17:00 +8°C° 0.6 mm 3 m/s 631 mmHg 71%
    18:00 +8°C° 0.6 mm 3 m/s 631 mmHg 70%
    19:00 +7°C° 0.4 mm 2 m/s 632 mmHg 72%
    20:00 +7°C° 0.4 mm 2 m/s 632 mmHg 75%
    21:00 +6°C° 0.4 mm 2 m/s 633 mmHg 78%
    22:00 +6°C° 0.6 mm 2 m/s 633 mmHg 78%
    23:00 +7°C° 0.6 mm 1 m/s 633 mmHg 78%

    Amanhã, 27 Março, Quarta-feira

    Tempo Temperatura Precipitação Vento Pressão Humidade
    00:00 +6°C° 0.6 mm 1 m/s 634 mmHg 78%
    01:00 +6°C° 0.5 mm 1 m/s 634 mmHg 78%
    02:00 +6°C° 0.5 mm 1 m/s 634 mmHg 79%
    03:00 +6°C° 0.5 mm 1 m/s 634 mmHg 80%
    04:00 +5°C° 0 mm 1 m/s 634 mmHg 81%
    05:00 +4°C° 0 mm 1 m/s 634 mmHg 83%
    06:00 +4°C° 0 mm 1 m/s 634 mmHg 84%
    07:00 +5°C° 0 mm 1 m/s 635 mmHg 78%
    08:00 +6°C° 0 mm 2 m/s 636 mmHg 72%
    09:00 +7°C° 0 mm 2 m/s 636 mmHg 66%
    10:00 +8°C° 0 mm 3 m/s 636 mmHg 62%
    11:00 +9°C° 0 mm 3 m/s 637 mmHg 59%
    12:00 +8°C° 0 mm 4 m/s 637 mmHg 56%
    13:00 +10°C° 0.1 mm 3 m/s 637 mmHg 57%
    14:00 +10°C° 0.1 mm 3 m/s 636 mmHg 57%
    15:00 +10°C° 0.1 mm 3 m/s 636 mmHg 58%
    16:00 +9°C° 0.3 mm 3 m/s 636 mmHg 61%
    17:00 +8°C° 0.3 mm 3 m/s 636 mmHg 65%
    18:00 +8°C° 0.3 mm 2 m/s 636 mmHg 68%
    19:00 +7°C° 0.2 mm 2 m/s 636 mmHg 71%
    20:00 +7°C° 0.2 mm 1 m/s 636 mmHg 73%
    21:00 +7°C° 0.2 mm 1 m/s 636 mmHg 76%
    22:00 +7°C° 0.1 mm 1 m/s 636 mmHg 76%
    23:00 +7°C° 0.1 mm 1 m/s 636 mmHg 75%

    Depois de amanhã, 28 Março, Quinta-feira

    Tempo Temperatura Precipitação Vento Pressão Humidade
    00:00 +7°C° 0.1 mm 1 m/s 636 mmHg 75%
    01:00 +6°C° 0.1 mm 1 m/s 636 mmHg 75%
    02:00 +6°C° 0.1 mm 1 m/s 635 mmHg 76%
    03:00 +6°C° 0.1 mm 1 m/s 635 mmHg 76%
    04:00 +6°C° 0.2 mm 1 m/s 635 mmHg 77%
    05:00 +5°C° 0.2 mm 1 m/s 635 mmHg 79%
    06:00 +5°C° 0.2 mm 1 m/s 636 mmHg 80%
    07:00 +6°C° 0.1 mm 2 m/s 636 mmHg 74%
    08:00 +7°C° 0.1 mm 2 m/s 637 mmHg 67%
    09:00 +8°C° 0.1 mm 2 m/s 637 mmHg 61%
    10:00 +9°C° 0.5 mm 3 m/s 637 mmHg 58%
    11:00 +8°C° 0.5 mm 4 m/s 637 mmHg 55%
    12:00 +9°C° 0.5 mm 5 m/s 637 mmHg 51%
    13:00 +9°C° 0.8 mm 5 m/s 637 mmHg 52%
    14:00 +9°C° 0.8 mm 6 m/s 636 mmHg 53%
    15:00 +9°C° 0.8 mm 6 m/s 636 mmHg 54%
    16:00 +8°C° 0.4 mm 5 m/s 636 mmHg 59%
    17:00 +7°C° 0.4 mm 4 m/s 636 mmHg 64%
    18:00 +7°C° 0.4 mm 3 m/s 636 mmHg 69%
    19:00 +6°C° 0 mm 2 m/s 636 mmHg 71%
    20:00 +6°C° 0 mm 2 m/s 636 mmHg 74%
    21:00 +6°C° 0 mm 1 m/s 636 mmHg 77%
    22:00 +6°C° 0 mm 1 m/s 636 mmHg 78%
    23:00 +5°C° 0 mm 1 m/s 636 mmHg 79%

    29 Março, Sexta-feira

    Tempo Temperatura Precipitação Vento Pressão Humidade
    00:00 +5°C° 0 mm 1 m/s 636 mmHg 80%
    01:00 +5°C° 0 mm 1 m/s 636 mmHg 80%
    02:00 +5°C° 0 mm 1 m/s 636 mmHg 81%
    03:00 +5°C° 0 mm 1 m/s 636 mmHg 81%
    04:00 +4°C° 0 mm 1 m/s 636 mmHg 83%
    05:00 +4°C° 0 mm 1 m/s 636 mmHg 84%
    06:00 +4°C° 0 mm 1 m/s 636 mmHg 85%
    07:00 +6°C° 0 mm 1 m/s 636 mmHg 77%
    08:00 +6°C° 0 mm 2 m/s 637 mmHg 70%
    09:00 +8°C° 0 mm 2 m/s 637 mmHg 62%
    10:00 +9°C° 0 mm 2 m/s 638 mmHg 55%
    11:00 +11°C° 0 mm 3 m/s 638 mmHg 49%
    12:00 +12°C° 0 mm 3 m/s 638 mmHg 42%
    13:00 +12°C° 0 mm 3 m/s 637 mmHg 42%
    14:00 +12°C° 0 mm 3 m/s 637 mmHg 42%
    15:00 +12°C° 0 mm 3 m/s 637 mmHg 42%
    16:00 +12°C° 0 mm 2 m/s 636 mmHg 46%
    17:00 +12°C° 0 mm 2 m/s 636 mmHg 50%
    18:00 +11°C° 0 mm 1 m/s 636 mmHg 54%
    19:00 +10°C° 0 mm 1 m/s 636 mmHg 57%
    20:00 +10°C° 0 mm 1 m/s 636 mmHg 59%
    21:00 +9°C° 0 mm 1 m/s 636 mmHg 61%
    22:00 +9°C° 0 mm 1 m/s 636 mmHg 62%
    23:00 +9°C° 0 mm 1 m/s 636 mmHg 63%

    30 Março, Sábado

    Tempo Temperatura Precipitação Vento Pressão Humidade
    00:00 +8°C° 0 mm 1 m/s 636 mmHg 65%
    01:00 +8°C° 0 mm 1 m/s 635 mmHg 66%
    02:00 +8°C° 0 mm 1 m/s 635 mmHg 67%
    03:00 +7°C° 0 mm 2 m/s 635 mmHg 68%
    04:00 +8°C° 0.2 mm 1 m/s 635 mmHg 70%
    05:00 +8°C° 0.2 mm 1 m/s 635 mmHg 72%
    06:00 +8°C° 0.2 mm 1 m/s 635 mmHg 73%
    07:00 +9°C° 0 mm 1 m/s 636 mmHg 65%
    08:00 +10°C° 0 mm 2 m/s 636 mmHg 57%
    09:00 +12°C° 0 mm 3 m/s 637 mmHg 48%
    10:00 +13°C° 0 mm 3 m/s 637 mmHg 44%
    11:00 +15°C° 0 mm 4 m/s 637 mmHg 39%
    12:00 +17°C° 0 mm 4 m/s 637 mmHg 34%
    13:00 +16°C° 0 mm 5 m/s 637 mmHg 35%
    14:00 +16°C° 0 mm 5 m/s 636 mmHg 35%
    15:00 +16°C° 0 mm 6 m/s 636 mmHg 35%
    16:00 +15°C° 0.3 mm 5 m/s 635 mmHg 42%
    17:00 +13°C° 0.3 mm 4 m/s 635 mmHg 48%
    18:00 +12°C° 0.3 mm 3 m/s 635 mmHg 54%
    19:00 +12°C° 0.1 mm 2 m/s 635 mmHg 56%
    20:00 +10°C° 0.1 mm 2 m/s 635 mmHg 59%
    21:00 +9°C° 0.1 mm 2 m/s 635 mmHg 61%
    22:00 +9°C° 0 mm 2 m/s 634 mmHg 61%
    23:00 +9°C° 0 mm 2 m/s 634 mmHg 61%

    31 Março, Domingo

    Tempo Temperatura Precipitação Vento Pressão Humidade
    00:00 +9°C° 0 mm 2 m/s 633 mmHg 61%
    01:00 +8°C° 0.2 mm 2 m/s 633 mmHg 63%
    02:00 +8°C° 0.2 mm 2 m/s 633 mmHg 65%
    03:00 +8°C° 0.2 mm 2 m/s 633 mmHg 66%
    04:00 +8°C° 0.4 mm 2 m/s 633 mmHg 69%
    05:00 +8°C° 0.4 mm 2 m/s 633 mmHg 72%
    06:00 +8°C° 0.4 mm 2 m/s 633 mmHg 74%
    07:00 +8°C° 1.9 mm 2 m/s 633 mmHg 77%
    08:00 +9°C° 1.9 mm 2 m/s 633 mmHg 79%
    09:00 +9°C° 1.9 mm 2 m/s 633 mmHg 81%
    10:00 +10°C° 0.6 mm 3 m/s 634 mmHg 78%
    11:00 +11°C° 0.6 mm 4 m/s 634 mmHg 75%
    12:00 +12°C° 0.6 mm 5 m/s 634 mmHg 71%
    13:00 +12°C° 0.3 mm 5 m/s 633 mmHg 73%
    14:00 +11°C° 0.3 mm 6 m/s 632 mmHg 74%
    15:00 +13°C° 0.3 mm 6 m/s 632 mmHg 76%
    16:00 +11°C° 1.1 mm 6 m/s 632 mmHg 78%
    17:00 +11°C° 1.1 mm 6 m/s 632 mmHg 81%
    18:00 +12°C° 1.1 mm 5 m/s 632 mmHg 84%
    19:00 +10°C° 1.4 mm 5 m/s 632 mmHg 87%
    20:00 +11°C° 1.4 mm 4 m/s 632 mmHg 90%
    21:00 +10°C° 1.4 mm 3 m/s 632 mmHg 93%
    22:00 +10°C° 1.3 mm 3 m/s 632 mmHg 93%
    23:00 +9°C° 1.3 mm 2 m/s 631 mmHg 94%
    Mostrar mais